Simultaneous Nadir Overpasses (SNOs) Predictions

Prediction of SNOs between LANDSAT-8 and METOP-B Satellite Orbit:

Table of predicted SNOs for the next 14.0 days since TLE Epoch: 8/31/2024
Index Date (LANDSAT-8) Time (LANDSAT-8) Lat,Lon (LANDSAT-8) SZA (LANDSAT-8 ) Date (METOP-B) Time (METOP-B) Lat,Lon (METOP-B) SZA (METOP-B ) Distance(km) Time Diff (sec)
1 09/02/2024 08:08:40 80.56, 90.73 74.40 09/02/2024 08:07:29 80.91, 88.47 74.47 55.82 71
2 09/02/2024 08:57:33 -81.40, -89.54 103.74 09/02/2024 08:57:31 -81.39, -89.47 103.74 1.40 2
3 09/02/2024 09:46:59 81.40, 78.22 76.29 09/02/2024 09:48:11 81.40, 78.19 76.32 0.82 72
4 09/05/2024 03:42:24 81.38, 168.92 77.26 09/05/2024 03:41:14 81.38, 169.06 77.25 2.36 70
5 09/05/2024 04:31:50 -81.40, -23.10 102.68 09/05/2024 04:31:54 -81.39, -23.29 102.71 3.28 4
6 09/07/2024 23:16:39 81.39,-124.52 78.35 09/07/2024 23:15:36 81.38,-124.59 78.31 1.11 63
7 09/08/2024 00:06:06 -81.38, 43.09 101.65 09/08/2024 00:06:16 -81.39, 43.08 101.64 0.49 10
8 09/10/2024 18:50:53 81.38, -58.20 79.42 09/10/2024 18:49:57 81.39, -58.02 79.42 3.11 56
9 09/10/2024 19:40:19 -81.40, 109.82 100.52 09/10/2024 19:40:37 -81.39, 109.67 100.53 2.56 18
10 09/13/2024 14:25:04 81.38, 8.26 80.52 09/13/2024 14:24:17 81.39, 8.36 80.51 1.74 47



Historial Predications of SNOs between LANDSAT-8 and METOP-B
